owner,sensor,date,latitude,longitude,vertical_datum,wind_speed,wind_to_direction,wind_speed_of_gust,qcFlag 
NOS,ioos:station:wmo:bzst2:1,2017-04-05T20:48:00Z,26.0670,-97.1550,15.0,12.3,11.0,14.4,'11111222,11111222,11111222' 
NOS,ioos:station:wmo:bzst2:1,2017-04-05T20:54:00Z,26.0670,-97.1550,15.0,12.7,13.0,14.2,'11111222,11111222,11111222' 
NOS,ioos:station:wmo:bzst2:1,2017-04-05T21:00:00Z,26.0670,-97.1550,15.0,12.0,10.0,13.5,'11111222,11111222,11111222' 
NOS,ioos:station:wmo:bzst2:1,2017-04-05T21:06:00Z,26.0670,-97.1550,15.0,12.8,12.0,14.1,'11111222,11111222,11111222' 
NOS,ioos:station:wmo:bzst2:1,2017-04-05T21:12:00Z,26.0670,-97.1550,15.0,12.2,13.0,13.9,'11111222,11111222,11111222' 
NOS,ioos:station:wmo:bzst2:1,2017-04-05T21:18:00Z,26.0670,-97.1550,15.0,11.5,16.0,13.8,'11111222,11111222,11111222' 
NOS,ioos:station:wmo:bzst2:1,2017-04-05T21:24:00Z,26.0670,-97.1550,15.0,12.9,10.0,14.5,'11111222,11111222,11111222' 
NOS,ioos:station:wmo:bzst2:1,2017-04-05T21:30:00Z,26.0670,-97.1550,15.0,12.0,9.0,13.6,'11111222,11111222,11111222' 
NOS,ioos:station:wmo:bzst2:1,2017-04-05T21:36:00Z,26.0670,-97.1550,15.0,11.1,10.0,13.8,'11111222,11111222,11111222' 
NOS,ioos:station:wmo:bzst2:1,2017-04-05T21:42:00Z,26.0670,-97.1550,15.0,11.3,10.0,13.7,'11111222,11111222,11111222' 
NOS,ioos:station:wmo:bzst2:1,2017-04-05T21:48:00Z,26.0670,-97.1550,15.0,12.3,11.0,14.0,'11111222,11111222,11111222' 
NOS,ioos:station:wmo:bzst2:1,2017-04-05T21:54:00Z,26.0670,-97.1550,15.0,11.1,17.0,13.2,'11111222,11111222,11111222' 
NOS,ioos:station:wmo:bzst2:1,2017-04-05T22:00:00Z,26.0670,-97.1550,15.0,11.4,11.0,13.4,'11111222,11111222,11111222' 
NOS,ioos:station:wmo:bzst2:1,2017-04-05T22:06:00Z,26.0670,-97.1550,15.0,11.6,16.0,13.3,'11111222,11111222,11111222' 
NOS,ioos:station:wmo:bzst2:1,2017-04-05T22:12:00Z,26.0670,-97.1550,15.0,11.1,16.0,13.1,'11111222,11111222,11111222' 
NOS,ioos:station:wmo:bzst2:1,2017-04-05T22:18:00Z,26.0670,-97.1550,15.0,11.3,20.0,13.3,'11111222,11111222,11111222' 
NOS,ioos:station:wmo:bzst2:1,2017-04-05T22:24:00Z,26.0670,-97.1550,15.0,11.5,21.0,13.2,'11111222,11111222,11111222' 
NOS,ioos:station:wmo:bzst2:1,2017-04-05T22:30:00Z,26.0670,-97.1550,15.0,11.1,21.0,12.7,'11111222,11111222,11111222' 
NOS,ioos:station:wmo:bzst2:1,2017-04-05T22:36:00Z,26.0670,-97.1550,15.0,11.2,23.0,13.7,'11111222,11111222,11111222' 
NOS,ioos:station:wmo:bzst2:1,2017-04-05T22:42:00Z,26.0670,-97.1550,15.0,10.6,19.0,12.6,'11111222,11111222,11111222' 
NOS,ioos:station:wmo:bzst2:1,2017-04-05T22:48:00Z,26.0670,-97.1550,15.0,10.9,27.0,12.4,'11111222,11111222,11111222' 
NOS,ioos:station:wmo:bzst2:1,2017-04-05T22:54:00Z,26.0670,-97.1550,15.0,11.6,26.0,12.8,'11111222,11111222,11111222' 
NOS,ioos:station:wmo:bzst2:1,2017-04-05T23:00:00Z,26.0670,-97.1550,15.0,11.2,27.0,12.3,'11111222,11111222,11111222' 
NOS,ioos:station:wmo:bzst2:1,2017-04-05T23:06:00Z,26.0670,-97.1550,15.0,11.2,23.0,12.9,'11111222,11111222,11111222' 
NOS,ioos:station:wmo:bzst2:1,2017-04-05T23:12:00Z,26.0670,-97.1550,15.0,11.0,26.0,12.5,'11111222,11111222,11111222' 
NOS,ioos:station:wmo:bzst2:1,2017-04-05T23:18:00Z,26.0670,-97.1550,15.0,10.0,25.0,12.7,'11111222,11111222,11111222' 
NOS,ioos:station:wmo:bzst2:1,2017-04-05T23:24:00Z,26.0670,-97.1550,15.0,10.3,24.0,11.7,'11111222,11111222,11111222' 
NOS,ioos:station:wmo:bzst2:1,2017-04-05T23:30:00Z,26.0670,-97.1550,15.0,10.6,26.0,12.3,'11111222,11111222,11111222' 
NOS,ioos:station:wmo:bzst2:1,2017-04-05T23:36:00Z,26.0670,-97.1550,15.0,10.7,29.0,12.7,'11111222,11111222,11111222' 
NOS,ioos:station:wmo:bzst2:1,2017-04-05T23:42:00Z,26.0670,-97.1550,15.0,9.8,24.0,11.8,'11111222,11111222,11111222' 
NOS,ioos:station:wmo:bzst2:1,2017-04-05T23:48:00Z,26.0670,-97.1550,15.0,9.7,26.0,11.7,'11111222,11111222,11111222' 
NOS,ioos:station:wmo:bzst2:1,2017-04-05T23:54:00Z,26.0670,-97.1550,15.0,10.7,28.0,11.7,'11111222,11111222,11111222' 
NOS,ioos:station:wmo:bzst2:1,2017-04-06T00:00:00Z,26.0670,-97.1550,15.0,9.9,33.0,11.7,'11111222,11111222,11111222' 
NOS,ioos:station:wmo:bzst2:1,2017-04-06T00:06:00Z,26.0670,-97.1550,15.0,10.5,30.0,11.3,'11111222,11111222,11111222' 
NOS,ioos:station:wmo:bzst2:1,2017-04-06T00:12:00Z,26.0670,-97.1550,15.0,10.7,31.0,11.7,'11111222,11111222,11111222' 
NOS,ioos:station:wmo:bzst2:1,2017-04-06T00:18:00Z,26.0670,-97.1550,15.0,9.6,25.0,11.2,'11111222,11111222,11111222' 
NOS,ioos:station:wmo:bzst2:1,2017-04-06T00:24:00Z,26.0670,-97.1550,15.0,10.2,28.0,11.3,'11111222,11111222,11111222' 
NOS,ioos:station:wmo:bzst2:1,2017-04-06T00:30:00Z,26.0670,-97.1550,15.0,9.5,33.0,11.5,'11111222,11111222,11111222' 
NOS,ioos:station:wmo:bzst2:1,2017-04-06T00:36:00Z,26.0670,-97.1550,15.0,9.9,29.0,11.2,'11111222,11111222,11111222' 
NOS,ioos:station:wmo:bzst2:1,2017-04-06T00:42:00Z,26.0670,-97.1550,15.0,9.6,29.0,11.3,'11111222,11111222,11111222' 
NOS,ioos:station:wmo:bzst2:1,2017-04-06T00:48:00Z,26.0670,-97.1550,15.0,9.2,32.0,10.5,'11111222,11111222,11111222' 
NOS,ioos:station:wmo:bzst2:1,2017-04-06T00:54:00Z,26.0670,-97.1550,15.0,8.8,29.0,10.6,'11111222,11111222,11111222' 
NOS,ioos:station:wmo:bzst2:1,2017-04-06T01:00:00Z,26.0670,-97.1550,15.0,9.1,33.0,10.7,'11111222,11111222,11111222' 
NOS,ioos:station:wmo:bzst2:1,2017-04-06T01:06:00Z,26.0670,-97.1550,15.0,8.5,34.0,10.4,'11111222,11111222,11111222' 
NOS,ioos:station:wmo:bzst2:1,2017-04-06T01:12:00Z,26.0670,-97.1550,15.0,9.2,33.0,10.3,'11111222,11111222,11111222' 
NOS,ioos:station:wmo:bzst2:1,2017-04-06T01:18:00Z,26.0670,-97.1550,15.0,8.9,36.0,9.9,'11111222,11111222,11111222' 
NOS,ioos:station:wmo:bzst2:1,2017-04-06T01:24:00Z,26.0670,-97.1550,15.0,8.7,40.0,10.0,'11111222,11111222,11111222' 
NOS,ioos:station:wmo:bzst2:1,2017-04-06T01:30:00Z,26.0670,-97.1550,15.0,8.6,36.0,10.0,'11111222,11111222,11111222' 
NOS,ioos:station:wmo:bzst2:1,2017-04-06T01:36:00Z,26.0670,-97.1550,15.0,8.1,41.0,10.2,'11111222,11111222,11111222' 
NOS,ioos:station:wmo:bzst2:1,2017-04-06T01:42:00Z,26.0670,-97.1550,15.0,8.0,38.0,9.7,'11111222,11111222,11111222' 
NOS,ioos:station:wmo:bzst2:1,2017-04-06T01:48:00Z,26.0670,-97.1550,15.0,8.8,39.0,10.3,'11111222,11111222,11111222' 
NOS,ioos:station:wmo:bzst2:1,2017-04-06T01:54:00Z,26.0670,-97.1550,15.0,8.9,42.0,10.4,'11111222,11111222,11111222' 
NOS,ioos:station:wmo:bzst2:1,2017-04-06T02:00:00Z,26.0670,-97.1550,15.0,8.2,37.0,10.7,'11111222,11111222,11111222' 
NOS,ioos:station:wmo:bzst2:1,2017-04-06T02:06:00Z,26.0670,-97.1550,15.0,8.6,37.0,9.6,'11111222,11111222,11111222' 
NOS,ioos:station:wmo:bzst2:1,2017-04-06T02:12:00Z,26.0670,-97.1550,15.0,7.8,40.0,9.8,'11111222,11111222,11111222' 
NOS,ioos:station:wmo:bzst2:1,2017-04-06T02:18:00Z,26.0670,-97.1550,15.0,8.1,41.0,10.3,'11111222,11111222,11111222' 
NOS,ioos:station:wmo:bzst2:1,2017-04-06T02:24:00Z,26.0670,-97.1550,15.0,8.6,32.0,9.8,'11111222,11111222,11111222' 
NOS,ioos:station:wmo:bzst2:1,2017-04-06T02:30:00Z,26.0670,-97.1550,15.0,8.4,41.0,10.0,'11111222,11111222,11111222' 
NOS,ioos:station:wmo:bzst2:1,2017-04-06T02:36:00Z,26.0670,-97.1550,15.0,8.0,33.0,10.8,'11111222,11111222,11111222' 
NOS,ioos:station:wmo:bzst2:1,2017-04-06T02:42:00Z,26.0670,-97.1550,15.0,7.8,37.0,9.8,'11111222,11111222,11111222' 
NOS,ioos:station:wmo:bzst2:1,2017-04-06T02:48:00Z,26.0670,-97.1550,15.0,8.7,37.0,9.8,'11111222,11111222,11111222' 
NOS,ioos:station:wmo:bzst2:1,2017-04-06T02:54:00Z,26.0670,-97.1550,15.0,8.5,37.0,10.5,'11111222,11111222,11111222' 
NOS,ioos:station:wmo:bzst2:1,2017-04-06T03:00:00Z,26.0670,-97.1550,15.0,9.2,37.0,10.4,'11111222,11111222,11111222' 
NOS,ioos:station:wmo:bzst2:1,2017-04-06T03:06:00Z,26.0670,-97.1550,15.0,8.6,33.0,9.8,'11111222,11111222,11111222' 
NOS,ioos:station:wmo:bzst2:1,2017-04-06T03:12:00Z,26.0670,-97.1550,15.0,9.0,33.0,10.6,'11111222,11111222,11111222' 
NOS,ioos:station:wmo:bzst2:1,2017-04-06T03:18:00Z,26.0670,-97.1550,15.0,9.6,34.0,10.5,'11111222,11111222,11111222' 
NOS,ioos:station:wmo:bzst2:1,2017-04-06T03:24:00Z,26.0670,-97.1550,15.0,9.9,35.0,11.3,'11111222,11111222,11111222' 
NOS,ioos:station:wmo:bzst2:1,2017-04-06T03:30:00Z,26.0670,-97.1550,15.0,9.0,29.0,11.2,'11111222,11111222,11111222' 
NOS,ioos:station:wmo:bzst2:1,2017-04-06T03:36:00Z,26.0670,-97.1550,15.0,8.9,36.0,10.6,'11111222,11111222,11111222' 
NOS,ioos:station:wmo:bzst2:1,2017-04-06T03:42:00Z,26.0670,-97.1550,15.0,9.7,35.0,10.6,'11111222,11111222,11111222' 
NOS,ioos:station:wmo:bzst2:1,2017-04-06T03:48:00Z,26.0670,-97.1550,15.0,9.1,36.0,10.3,'11111222,11111222,11111222' 
NOS,ioos:station:wmo:bzst2:1,2017-04-06T03:54:00Z,26.0670,-97.1550,15.0,8.7,30.0,9.9,'11111222,11111222,11111222' 
NOS,ioos:station:wmo:bzst2:1,2017-04-06T04:00:00Z,26.0670,-97.1550,15.0,8.9,35.0,10.2,'11111222,11111222,11111222' 
NOS,ioos:station:wmo:bzst2:1,2017-04-06T04:06:00Z,26.0670,-97.1550,15.0,8.9,34.0,10.6,'11111222,11111222,11111222' 
NOS,ioos:station:wmo:bzst2:1,2017-04-06T04:12:00Z,26.0670,-97.1550,15.0,9.1,37.0,10.2,'11111222,11111222,11111222' 
NOS,ioos:station:wmo:bzst2:1,2017-04-06T04:18:00Z,26.0670,-97.1550,15.0,8.7,33.0,10.2,'11111222,11111222,11111222' 
NOS,ioos:station:wmo:bzst2:1,2017-04-06T04:24:00Z,26.0670,-97.1550,15.0,9.1,33.0,10.8,'11111222,11111222,11111222' 
NOS,ioos:station:wmo:bzst2:1,2017-04-06T04:30:00Z,26.0670,-97.1550,15.0,9.8,35.0,11.0,'11111222,11111222,11111222' 
NOS,ioos:station:wmo:bzst2:1,2017-04-06T04:36:00Z,26.0670,-97.1550,15.0,9.8,28.0,10.9,'11111222,11111222,11111222' 
NOS,ioos:station:wmo:bzst2:1,2017-04-06T04:42:00Z,26.0670,-97.1550,15.0,9.8,30.0,11.0,'11111222,11111222,11111222' 
NOS,ioos:station:wmo:bzst2:1,2017-04-06T04:48:00Z,26.0670,-97.1550,15.0,9.5,38.0,10.5,'11111222,11111222,11111222' 
NOS,ioos:station:wmo:bzst2:1,2017-04-06T04:54:00Z,26.0670,-97.1550,15.0,8.9,38.0,11.3,'11111222,11111222,11111222' 
NOS,ioos:station:wmo:bzst2:1,2017-04-06T05:00:00Z,26.0670,-97.1550,15.0,10.2,37.0,11.7,'11111222,11111222,11111222' 
NOS,ioos:station:wmo:bzst2:1,2017-04-06T05:06:00Z,26.0670,-97.1550,15.0,9.6,38.0,10.9,'11111222,11111222,11111222' 
NOS,ioos:station:wmo:bzst2:1,2017-04-06T05:12:00Z,26.0670,-97.1550,15.0,9.8,38.0,10.7,'11111222,11111222,11111222' 
NOS,ioos:station:wmo:bzst2:1,2017-04-06T05:18:00Z,26.0670,-97.1550,15.0,9.5,34.0,10.9,'11111222,11111222,11111222' 
NOS,ioos:station:wmo:bzst2:1,2017-04-06T05:24:00Z,26.0670,-97.1550,15.0,9.4,38.0,11.4,'11111222,11111222,11111222' 
NOS,ioos:station:wmo:bzst2:1,2017-04-06T05:30:00Z,26.0670,-97.1550,15.0,9.9,39.0,11.2,'11111222,11111222,11111222' 
NOS,ioos:station:wmo:bzst2:1,2017-04-06T05:36:00Z,26.0670,-97.1550,15.0,10.1,30.0,11.4,'11111222,11111222,11111222' 
NOS,ioos:station:wmo:bzst2:1,2017-04-06T05:42:00Z,26.0670,-97.1550,15.0,9.7,34.0,11.7,'11111222,11111222,11111222' 
NOS,ioos:station:wmo:bzst2:1,2017-04-06T05:48:00Z,26.0670,-97.1550,15.0,10.0,39.0,11.2,'11111222,11111222,11111222' 
NOS,ioos:station:wmo:bzst2:1,2017-04-06T05:54:00Z,26.0670,-97.1550,15.0,9.4,34.0,11.1,'11111222,11111222,11111222' 
NOS,ioos:station:wmo:bzst2:1,2017-04-06T06:00:00Z,26.0670,-97.1550,15.0,9.9,39.0,11.4,'11111222,11111222,11111222' 
NOS,ioos:station:wmo:bzst2:1,2017-04-06T06:06:00Z,26.0670,-97.1550,15.0,10.0,36.0,11.5,'11111222,11111222,11111222' 
NOS,ioos:station:wmo:bzst2:1,2017-04-06T06:12:00Z,26.0670,-97.1550,15.0,10.3,30.0,11.3,'11111222,11111222,11111222' 
NOS,ioos:station:wmo:bzst2:1,2017-04-06T06:18:00Z,26.0670,-97.1550,15.0,8.6,37.0,10.4,'11111222,11111222,11111222' 
NOS,ioos:station:wmo:bzst2:1,2017-04-06T06:24:00Z,26.0670,-97.1550,15.0,9.4,36.0,10.8,'11111222,11111222,11111222' 
NOS,ioos:station:wmo:bzst2:1,2017-04-06T06:30:00Z,26.0670,-97.1550,15.0,9.4,35.0,11.2,'11111222,11111222,11111222' 
NOS,ioos:station:wmo:bzst2:1,2017-04-06T06:36:00Z,26.0670,-97.1550,15.0,9.5,41.0,11.1,'11111222,11111222,11111222' 
NOS,ioos:station:wmo:bzst2:1,2017-04-06T06:42:00Z,26.0670,-97.1550,15.0,9.0,40.0,9.9,'11111222,11111222,11111222' 
NOS,ioos:station:wmo:bzst2:1,2017-04-06T06:48:00Z,26.0670,-97.1550,15.0,9.0,43.0,10.0,'11111222,11111222,11111222' 
NOS,ioos:station:wmo:bzst2:1,2017-04-06T06:54:00Z,26.0670,-97.1550,15.0,8.0,45.0,9.1,'11111222,11111222,11111222' 
NOS,ioos:station:wmo:bzst2:1,2017-04-06T07:00:00Z,26.0670,-97.1550,15.0,9.0,38.0,10.3,'11111222,11111222,11111222' 
NOS,ioos:station:wmo:bzst2:1,2017-04-06T07:06:00Z,26.0670,-97.1550,15.0,7.9,40.0,9.8,'11111222,11111222,11111222' 
NOS,ioos:station:wmo:bzst2:1,2017-04-06T07:12:00Z,26.0670,-97.1550,15.0,8.1,37.0,9.6,'11111222,11111222,11111222' 
NOS,ioos:station:wmo:bzst2:1,2017-04-06T07:18:00Z,26.0670,-97.1550,15.0,7.8,39.0,9.2,'11111222,11111222,11111222' 
NOS,ioos:station:wmo:bzst2:1,2017-04-06T07:24:00Z,26.0670,-97.1550,15.0,8.3,42.0,10.1,'11111222,11111222,11111222' 
NOS,ioos:station:wmo:bzst2:1,2017-04-06T07:30:00Z,26.0670,-97.1550,15.0,8.3,33.0,9.4,'11111222,11111222,11111222' 
NOS,ioos:station:wmo:bzst2:1,2017-04-06T07:36:00Z,26.0670,-97.1550,15.0,8.7,41.0,9.8,'11111222,11111222,11111222' 
NOS,ioos:station:wmo:bzst2:1,2017-04-06T07:42:00Z,26.0670,-97.1550,15.0,7.7,44.0,9.6,'11111222,11111222,11111222' 
NOS,ioos:station:wmo:bzst2:1,2017-04-06T07:48:00Z,26.0670,-97.1550,15.0,8.6,46.0,10.2,'11111222,11111222,11111222' 
NOS,ioos:station:wmo:bzst2:1,2017-04-06T07:54:00Z,26.0670,-97.1550,15.0,7.8,35.0,9.4,'11111222,11111222,11111222' 
NOS,ioos:station:wmo:bzst2:1,2017-04-06T08:00:00Z,26.0670,-97.1550,15.0,8.4,42.0,9.6,'11111222,11111222,11111222' 
NOS,ioos:station:wmo:bzst2:1,2017-04-06T08:06:00Z,26.0670,-97.1550,15.0,7.7,40.0,9.2,'11111222,11111222,11111222' 
NOS,ioos:station:wmo:bzst2:1,2017-04-06T08:12:00Z,26.0670,-97.1550,15.0,6.9,38.0,9.3,'11111222,11111222,11111222' 
NOS,ioos:station:wmo:bzst2:1,2017-04-06T08:18:00Z,26.0670,-97.1550,15.0,8.3,38.0,10.1,'11111222,11111222,11111222' 
NOS,ioos:station:wmo:bzst2:1,2017-04-06T08:24:00Z,26.0670,-97.1550,15.0,7.0,27.0,9.2,'11111222,11111222,11111222' 
NOS,ioos:station:wmo:bzst2:1,2017-04-06T08:30:00Z,26.0670,-97.1550,15.0,6.4,43.0,9.2,'11111222,11111222,11111222' 
NOS,ioos:station:wmo:bzst2:1,2017-04-06T08:36:00Z,26.0670,-97.1550,15.0,7.3,40.0,9.2,'11111222,11111222,11111222' 
NOS,ioos:station:wmo:bzst2:1,2017-04-06T08:42:00Z,26.0670,-97.1550,15.0,7.0,42.0,8.6,'11111222,11111222,11111222' 
NOS,ioos:station:wmo:bzst2:1,2017-04-06T08:48:00Z,26.0670,-97.1550,15.0,7.6,33.0,9.1,'11111222,11111222,11111222' 
NOS,ioos:station:wmo:bzst2:1,2017-04-06T08:54:00Z,26.0670,-97.1550,15.0,7.5,49.0,9.0,'11111222,11111222,11111222' 
NOS,ioos:station:wmo:bzst2:1,2017-04-06T09:00:00Z,26.0670,-97.1550,15.0,7.3,35.0,8.7,'11111222,11111222,11111222' 
NOS,ioos:station:wmo:bzst2:1,2017-04-06T09:06:00Z,26.0670,-97.1550,15.0,7.0,47.0,9.2,'11111222,11111222,11111222' 
NOS,ioos:station:wmo:bzst2:1,2017-04-06T09:12:00Z,26.0670,-97.1550,15.0,7.2,49.0,8.3,'11111222,11111222,11111222' 
NOS,ioos:station:wmo:bzst2:1,2017-04-06T09:18:00Z,26.0670,-97.1550,15.0,6.9,43.0,8.6,'11111222,11111222,11111222' 
NOS,ioos:station:wmo:bzst2:1,2017-04-06T09:24:00Z,26.0670,-97.1550,15.0,7.4,42.0,8.4,'11111222,11111222,11111222' 
NOS,ioos:station:wmo:bzst2:1,2017-04-06T09:30:00Z,26.0670,-97.1550,15.0,7.4,46.0,8.8,'11111222,11111222,11111222' 
NOS,ioos:station:wmo:bzst2:1,2017-04-06T09:36:00Z,26.0670,-97.1550,15.0,7.7,31.0,9.2,'11111222,11111222,11111222' 
NOS,ioos:station:wmo:bzst2:1,2017-04-06T09:42:00Z,26.0670,-97.1550,15.0,6.7,34.0,8.7,'11111222,11111222,11111222' 
NOS,ioos:station:wmo:bzst2:1,2017-04-06T09:48:00Z,26.0670,-97.1550,15.0,7.8,38.0,8.9,'11111222,11111222,11111222' 
NOS,ioos:station:wmo:bzst2:1,2017-04-06T09:54:00Z,26.0670,-97.1550,15.0,6.9,42.0,8.1,'11111222,11111222,11111222' 
NOS,ioos:station:wmo:bzst2:1,2017-04-06T10:00:00Z,26.0670,-97.1550,15.0,7.0,43.0,8.4,'11111222,11111222,11111222' 
NOS,ioos:station:wmo:bzst2:1,2017-04-06T10:06:00Z,26.0670,-97.1550,15.0,7.3,50.0,8.4,'11111222,11111222,11111222' 
NOS,ioos:station:wmo:bzst2:1,2017-04-06T10:12:00Z,26.0670,-97.1550,15.0,8.1,39.0,9.6,'11111222,11111222,11111222' 
NOS,ioos:station:wmo:bzst2:1,2017-04-06T10:18:00Z,26.0670,-97.1550,15.0,7.1,33.0,8.5,'11111222,11111222,11111222' 
NOS,ioos:station:wmo:bzst2:1,2017-04-06T10:24:00Z,26.0670,-97.1550,15.0,6.9,37.0,9.5,'11111222,11111222,11111222' 
NOS,ioos:station:wmo:bzst2:1,2017-04-06T10:30:00Z,26.0670,-97.1550,15.0,8.2,38.0,9.9,'11111222,11111222,11111222' 
NOS,ioos:station:wmo:bzst2:1,2017-04-06T10:36:00Z,26.0670,-97.1550,15.0,7.9,35.0,9.2,'11111222,11111222,11111222' 
NOS,ioos:station:wmo:bzst2:1,2017-04-06T10:42:00Z,26.0670,-97.1550,15.0,6.8,38.0,8.7,'11111222,11111222,11111222' 
NOS,ioos:station:wmo:bzst2:1,2017-04-06T10:48:00Z,26.0670,-97.1550,15.0,7.6,39.0,9.5,'11111222,11111222,11111222' 
NOS,ioos:station:wmo:bzst2:1,2017-04-06T10:54:00Z,26.0670,-97.1550,15.0,8.4,41.0,9.8,'11111222,11111222,11111222' 
NOS,ioos:station:wmo:bzst2:1,2017-04-06T11:00:00Z,26.0670,-97.1550,15.0,7.8,38.0,10.3,'11111222,11111222,11111222' 
NOS,ioos:station:wmo:bzst2:1,2017-04-06T11:06:00Z,26.0670,-97.1550,15.0,8.0,45.0,9.4,'11111222,11111222,11111222' 
NOS,ioos:station:wmo:bzst2:1,2017-04-06T11:30:00Z,26.0670,-97.1550,15.0,9.7,43.0,10.4,'11111222,11111222,11111222' 
NOS,ioos:station:wmo:bzst2:1,2017-04-06T11:36:00Z,26.0670,-97.1550,15.0,8.3,46.0,10.8,'11111222,11111222,11111222' 
NOS,ioos:station:wmo:bzst2:1,2017-04-06T11:42:00Z,26.0670,-97.1550,15.0,8.6,45.0,9.4,'11111222,11111222,11111222' 
NOS,ioos:station:wmo:bzst2:1,2017-04-06T11:48:00Z,26.0670,-97.1550,15.0,7.9,49.0,9.5,'11111222,11111222,11111222' 
NOS,ioos:station:wmo:bzst2:1,2017-04-06T11:54:00Z,26.0670,-97.1550,15.0,8.7,45.0,9.8,'11111222,11111222,11111222' 
NOS,ioos:station:wmo:bzst2:1,2017-04-06T12:00:00Z,26.0670,-97.1550,15.0,7.0,55.0,9.0,'11111222,11111222,11111222' 
NOS,ioos:station:wmo:bzst2:1,2017-04-06T12:06:00Z,26.0670,-97.1550,15.0,8.4,55.0,9.8,'11111222,11111222,11111222' 
NOS,ioos:station:wmo:bzst2:1,2017-04-06T12:12:00Z,26.0670,-97.1550,15.0,7.2,56.0,8.6,'11111222,11111222,11111222' 
NOS,ioos:station:wmo:bzst2:1,2017-04-06T12:18:00Z,26.0670,-97.1550,15.0,8.8,57.0,10.0,'11111222,11111222,11111222' 
NOS,ioos:station:wmo:bzst2:1,2017-04-06T12:24:00Z,26.0670,-97.1550,15.0,6.1,52.0,9.6,'11111222,11111222,11111222' 
NOS,ioos:station:wmo:bzst2:1,2017-04-06T12:30:00Z,26.0670,-97.1550,15.0,7.1,47.0,10.2,'11111222,11111222,11111222' 
NOS,ioos:station:wmo:bzst2:1,2017-04-06T12:36:00Z,26.0670,-97.1550,15.0,8.0,44.0,9.4,'11111222,11111222,11111222' 
NOS,ioos:station:wmo:bzst2:1,2017-04-06T12:48:00Z,26.0670,-97.1550,15.0,6.6,56.0,8.4,'11111222,11111222,11111222' 
NOS,ioos:station:wmo:bzst2:1,2017-04-06T12:54:00Z,26.0670,-97.1550,15.0,7.9,44.0,9.8,'11111222,11111222,11111222' 
NOS,ioos:station:wmo:bzst2:1,2017-04-06T13:00:00Z,26.0670,-97.1550,15.0,6.9,49.0,8.4,'11111222,11111222,11111222' 
NOS,ioos:station:wmo:bzst2:1,2017-04-06T13:06:00Z,26.0670,-97.1550,15.0,7.6,55.0,8.7,'11111222,11111222,11111222' 
NOS,ioos:station:wmo:bzst2:1,2017-04-06T13:12:00Z,26.0670,-97.1550,15.0,6.1,48.0,8.7,'11111222,11111222,11111222' 
NOS,ioos:station:wmo:bzst2:1,2017-04-06T13:18:00Z,26.0670,-97.1550,15.0,8.1,57.0,8.9,'11111222,11111222,11111222' 
NOS,ioos:station:wmo:bzst2:1,2017-04-06T13:24:00Z,26.0670,-97.1550,15.0,6.9,56.0,8.5,'11111222,11111222,11111222' 
NOS,ioos:station:wmo:bzst2:1,2017-04-06T13:30:00Z,26.0670,-97.1550,15.0,7.1,53.0,8.2,'11111222,11111222,11111222' 
NOS,ioos:station:wmo:bzst2:1,2017-04-06T13:36:00Z,26.0670,-97.1550,15.0,6.8,59.0,8.8,'11111222,11111222,11111222' 
NOS,ioos:station:wmo:bzst2:1,2017-04-06T13:42:00Z,26.0670,-97.1550,15.0,7.6,59.0,8.5,'11111222,11111222,11111222' 
NOS,ioos:station:wmo:bzst2:1,2017-04-06T13:48:00Z,26.0670,-97.1550,15.0,6.6,49.0,8.7,'11111222,11111222,11111222' 
NOS,ioos:station:wmo:bzst2:1,2017-04-06T13:54:00Z,26.0670,-97.1550,15.0,7.1,62.0,8.0,'11111222,11111222,11111222' 
NOS,ioos:station:wmo:bzst2:1,2017-04-06T14:00:00Z,26.0670,-97.1550,15.0,8.0,51.0,9.2,'11111222,11111222,11111222' 
NOS,ioos:station:wmo:bzst2:1,2017-04-06T14:06:00Z,26.0670,-97.1550,15.0,7.3,56.0,8.6,'11111222,11111222,11111222' 
NOS,ioos:station:wmo:bzst2:1,2017-04-06T14:12:00Z,26.0670,-97.1550,15.0,7.7,56.0,8.8,'11111222,11111222,11111222' 
NOS,ioos:station:wmo:bzst2:1,2017-04-06T14:18:00Z,26.0670,-97.1550,15.0,7.8,58.0,9.1,'11111222,11111222,11111222' 
NOS,ioos:station:wmo:bzst2:1,2017-04-06T14:24:00Z,26.0670,-97.1550,15.0,7.2,65.0,9.6,'11111222,11111222,11111222' 
NOS,ioos:station:wmo:bzst2:1,2017-04-06T14:30:00Z,26.0670,-97.1550,15.0,6.6,62.0,8.0,'11111222,11111222,11111222' 
NOS,ioos:station:wmo:bzst2:1,2017-04-06T14:36:00Z,26.0670,-97.1550,15.0,6.8,56.0,8.9,'11111222,11111222,11111222' 
NOS,ioos:station:wmo:bzst2:1,2017-04-06T14:42:00Z,26.0670,-97.1550,15.0,6.8,65.0,8.7,'11111222,11111222,11111222' 
NOS,ioos:station:wmo:bzst2:1,2017-04-06T14:48:00Z,26.0670,-97.1550,15.0,8.1,55.0,9.3,'11111222,11111222,11111222' 
NOS,ioos:station:wmo:bzst2:1,2017-04-06T14:54:00Z,26.0670,-97.1550,15.0,7.7,61.0,9.0,'11111222,11111222,11111222' 
NOS,ioos:station:wmo:bzst2:1,2017-04-06T15:00:00Z,26.0670,-97.1550,15.0,7.4,63.0,9.0,'11111222,11111222,11111222' 
NOS,ioos:station:wmo:bzst2:1,2017-04-06T15:06:00Z,26.0670,-97.1550,15.0,7.7,59.0,9.0,'11111222,11111222,11111222' 
NOS,ioos:station:wmo:bzst2:1,2017-04-06T15:12:00Z,26.0670,-97.1550,15.0,7.7,56.0,8.9,'11111222,11111222,11111222' 
NOS,ioos:station:wmo:bzst2:1,2017-04-06T15:18:00Z,26.0670,-97.1550,15.0,6.6,52.0,8.3,'11111222,11111222,11111222' 
NOS,ioos:station:wmo:bzst2:1,2017-04-06T15:24:00Z,26.0670,-97.1550,15.0,7.8,54.0,8.5,'11111222,11111222,11111222' 
NOS,ioos:station:wmo:bzst2:1,2017-04-06T15:30:00Z,26.0670,-97.1550,15.0,6.4,55.0,8.7,'11111222,11111222,11111222' 
NOS,ioos:station:wmo:bzst2:1,2017-04-06T15:36:00Z,26.0670,-97.1550,15.0,7.3,62.0,9.1,'11111222,11111222,11111222' 
NOS,ioos:station:wmo:bzst2:1,2017-04-06T15:42:00Z,26.0670,-97.1550,15.0,7.9,55.0,9.2,'11111222,11111222,11111222' 
NOS,ioos:station:wmo:bzst2:1,2017-04-06T15:48:00Z,26.0670,-97.1550,15.0,8.1,57.0,8.9,'11111222,11111222,11111222' 
NOS,ioos:station:wmo:bzst2:1,2017-04-06T15:54:00Z,26.0670,-97.1550,15.0,6.6,63.0,8.2,'11111222,11111222,11111222' 
NOS,ioos:station:wmo:bzst2:1,2017-04-06T16:00:00Z,26.0670,-97.1550,15.0,8.0,69.0,9.0,'11111222,11111222,11111222' 
NOS,ioos:station:wmo:bzst2:1,2017-04-06T16:06:00Z,26.0670,-97.1550,15.0,7.0,62.0,8.0,'11111222,11111222,11111222' 
NOS,ioos:station:wmo:bzst2:1,2017-04-06T16:12:00Z,26.0670,-97.1550,15.0,6.9,55.0,8.0,'11111222,11111222,11111222' 
NOS,ioos:station:wmo:bzst2:1,2017-04-06T16:18:00Z,26.0670,-97.1550,15.0,6.7,69.0,7.9,'11111222,11111222,11111222' 
NOS,ioos:station:wmo:bzst2:1,2017-04-06T16:24:00Z,26.0670,-97.1550,15.0,6.6,67.0,7.9,'11111222,11111222,11111222' 
NOS,ioos:station:wmo:bzst2:1,2017-04-06T16:30:00Z,26.0670,-97.1550,15.0,7.5,68.0,8.4,'11111222,11111222,11111222' 
NOS,ioos:station:wmo:bzst2:1,2017-04-06T16:36:00Z,26.0670,-97.1550,15.0,7.0,64.0,7.9,'11111222,11111222,11111222' 
NOS,ioos:station:wmo:bzst2:1,2017-04-06T16:42:00Z,26.0670,-97.1550,15.0,6.9,72.0,8.4,'11111222,11111222,11111222' 
NOS,ioos:station:wmo:bzst2:1,2017-04-06T16:48:00Z,26.0670,-97.1550,15.0,6.4,72.0,8.4,'11111222,11111222,11111222' 
NOS,ioos:station:wmo:bzst2:1,2017-04-06T17:00:00Z,26.0670,-97.1550,15.0,5.8,65.0,7.9,'11111222,11111222,11111222' 
NOS,ioos:station:wmo:bzst2:1,2017-04-06T17:06:00Z,26.0670,-97.1550,15.0,6.5,78.0,8.2,'11111222,11111222,11111222' 
NOS,ioos:station:wmo:bzst2:1,2017-04-06T17:12:00Z,26.0670,-97.1550,15.0,6.4,65.0,7.4,'11111222,11111222,11111222' 
NOS,ioos:station:wmo:bzst2:1,2017-04-06T17:18:00Z,26.0670,-97.1550,15.0,7.2,70.0,8.1,'11111222,11111222,11111222' 
NOS,ioos:station:wmo:bzst2:1,2017-04-06T17:24:00Z,26.0670,-97.1550,15.0,6.3,59.0,8.1,'11111222,11111222,11111222' 
NOS,ioos:station:wmo:bzst2:1,2017-04-06T17:30:00Z,26.0670,-97.1550,15.0,6.1,54.0,6.6,'11111222,11111222,11111222' 
NOS,ioos:station:wmo:bzst2:1,2017-04-06T17:36:00Z,26.0670,-97.1550,15.0,5.2,56.0,6.8,'11111222,11111222,11111222' 
NOS,ioos:station:wmo:bzst2:1,2017-04-06T17:42:00Z,26.0670,-97.1550,15.0,5.8,61.0,7.8,'11111222,11111222,11111222' 
NOS,ioos:station:wmo:bzst2:1,2017-04-06T17:48:00Z,26.0670,-97.1550,15.0,5.6,66.0,6.8,'11111222,11111222,11111222' 